Tracking 17742 objects as of 25-June-2016
HD Live streaming from Space Station
objects crossing your sky now

HELIOS-2A

Track HELIOS-2A now!
10-day predictions
HELIOS-2A is classified as:


NORAD ID: 28492
Int'l Code: 2004-049A
Perigee: 686.6 km
Apogee: 689.4 km
Inclination: 98.1 °
Period: 98.4 minutes
Semi major axis: 7058 km
RCS: Unknown
Launch date: December 18, 2004
Source: France (FR)
Launch site: FRENCH GUIANA (FRGUI)

Optical reconnaissance; independent military intelligence capability for the EU.
Your satellite tracking list
Your tracking list is empty





NASA's NSSDC Master Catalog

Two Line Element Set (TLE):
1 28492U 04049A   16158.03697525 0.00000100  00000-0  19181-4 0    08
2 28492  98.1205  93.6573 0002000 303.8521  56.1478 14.63828743    06
Source of the keplerian elements: McCants

N2YO: 952